Tracking 25734 objects as of 26-May-2022
HD Live streaming from Space Station
objects crossing your sky now

SL-16 DEB

Track SL-16 DEB now!
10-day predictions


NORAD ID: 39894
Int'l Code: 1993-016BU
Perigee: 716.9 km
Apogee: 873.1 km
Inclination: 71.0 °
Period: 100.6 minutes
Semi major axis: 7166 km
RCS: 0.0104 m2 (small)
Launch date: March 26, 1993
Source: Commonwealth of Independent States (former USSR) (CIS)
Launch site: TYURATAM MISSILE AND SPACE COMPLEX (TTMTR)

Note: This is SATELLITE DEBRIS
aabbcc
Your satellite tracking list
Your tracking list is empty




NASA's NSSDC Master Catalog

Two Line Element Set (TLE):
1 39894U 93016BU  22143.11842608  .00009168  00000-0  32673-2 0  9991
2 39894  70.9717  54.1931 0108990 181.0388 179.0535 14.31147311393815
Source of the keplerian elements: AFSPC